Time,TemperatureF,DewpointF,PressureIn,WindDirection,WindDirectionDegrees,WindSpeedMPH,WindSpeedGustMPH,Humidity,HourlyPrecipIn,Conditions,Clouds,dailyrainin,SolarRadiationWatts/m^2,SoftwareType,DateUTC
2013-01-21 00:04:00,31.0,30.0,-100.00,ENE,75,3.0,4.0,95,0.00,,,0.00,0.000000,,2013-01-21 05:04:00,
2013-01-21 00:34:00,29.0,28.0,-100.00,SSE,150,1.0,4.0,96,0.00,,,0.00,0.000000,,2013-01-21 05:34:00,
2013-01-21 00:43:00,29.0,28.0,-100.00,SSE,150,1.0,4.0,96,0.00,,,0.00,0.000000,,2013-01-21 05:43:00,
2013-01-21 00:53:00,29.0,28.0,-100.00,SSE,150,1.0,4.0,96,0.00,,,0.00,0.000000,,2013-01-21 05:53:00,
2013-01-21 01:03:00,29.0,28.0,-100.00,SSE,150,1.0,4.0,96,0.00,,,0.00,0.000000,,2013-01-21 06:03:00,
2013-01-21 01:33:00,29.0,28.0,-100.00,East,87,1.0,4.0,97,0.00,,,0.00,0.000000,,2013-01-21 06:33:00,
2013-01-21 01:43:00,29.0,28.0,-100.00,East,87,1.0,4.0,97,0.00,,,0.00,0.000000,,2013-01-21 06:43:00,
2013-01-21 01:53:00,29.0,28.0,-100.00,East,87,1.0,4.0,97,0.00,,,0.00,0.000000,,2013-01-21 06:53:00,
2013-01-21 02:03:00,29.0,28.0,-100.00,East,87,1.0,4.0,97,0.00,,,0.00,0.000000,,2013-01-21 07:03:00,
2013-01-21 02:33:00,28.0,27.0,-100.00,East,89,1.0,4.0,97,0.00,,,0.00,0.000000,,2013-01-21 07:33:00,
2013-01-21 02:43:00,28.0,27.0,-100.00,East,89,1.0,4.0,97,0.00,,,0.00,0.000000,,2013-01-21 07:43:00,
2013-01-21 02:53:00,28.0,27.0,-100.00,East,89,1.0,4.0,97,0.00,,,0.00,0.000000,,2013-01-21 07:53:00,
2013-01-21 03:03:00,28.0,27.0,-100.00,East,89,1.0,4.0,97,0.00,,,0.00,0.000000,,2013-01-21 08:03:00,
2013-01-21 03:33:00,27.0,26.0,-100.00,East,94,1.0,3.0,97,0.00,,,0.00,0.000000,,2013-01-21 08:33:00,
2013-01-21 03:43:00,27.0,26.0,-100.00,East,94,1.0,3.0,97,0.00,,,0.00,0.000000,,2013-01-21 08:43:00,
2013-01-21 03:53:00,27.0,26.0,-100.00,East,94,1.0,3.0,97,0.00,,,0.00,0.000000,,2013-01-21 08:53:00,
2013-01-21 04:03:00,27.0,26.0,-100.00,East,94,1.0,3.0,97,0.00,,,0.00,0.000000,,2013-01-21 09:03:00,
2013-01-21 04:33:00,27.0,26.0,-100.00,ESE,114,1.0,4.0,97,0.00,,,0.00,0.000000,,2013-01-21 09:33:00,
2013-01-21 04:43:00,27.0,26.0,-100.00,ESE,114,1.0,4.0,97,0.00,,,0.00,0.000000,,2013-01-21 09:43:00,
2013-01-21 04:53:00,27.0,26.0,-100.00,ESE,114,1.0,4.0,97,0.00,,,0.00,0.000000,,2013-01-21 09:53:00,
2013-01-21 05:02:00,27.0,26.0,-100.00,ESE,114,1.0,4.0,97,0.00,,,0.00,0.000000,,2013-01-21 10:02:00,
2013-01-21 05:33:00,27.0,26.0,-100.00,East,90,2.0,6.0,97,0.00,,,0.00,0.000000,,2013-01-21 10:33:00,
2013-01-21 05:43:00,27.0,26.0,-100.00,East,90,2.0,6.0,97,0.00,,,0.00,0.000000,,2013-01-21 10:43:00,
2013-01-21 05:53:00,27.0,26.0,-100.00,East,90,2.0,6.0,97,0.00,,,0.00,0.000000,,2013-01-21 10:53:00,
2013-01-21 06:03:00,27.0,26.0,-100.00,East,90,2.0,6.0,97,0.00,,,0.00,0.000000,,2013-01-21 11:03:00,
2013-01-21 06:33:00,26.0,25.0,-100.00,South,176,0.0,4.0,97,0.00,,,0.00,0.000000,,2013-01-21 11:33:00,
2013-01-21 06:43:00,26.0,25.0,-100.00,South,176,0.0,4.0,97,0.00,,,0.00,0.000000,,2013-01-21 11:43:00,
2013-01-21 06:53:00,26.0,25.0,-100.00,South,176,0.0,4.0,97,0.00,,,0.00,0.000000,,2013-01-21 11:53:00,
2013-01-21 07:03:00,26.0,25.0,-100.00,South,176,0.0,4.0,97,0.00,,,0.00,0.000000,,2013-01-21 12:03:00,
2013-01-21 07:33:00,25.0,24.0,-100.00,SSW,211,1.0,5.0,97,0.00,,,0.00,0.000000,,2013-01-21 12:33:00,
2013-01-21 07:43:00,25.0,24.0,-100.00,SSW,211,1.0,5.0,97,0.00,,,0.00,0.000000,,2013-01-21 12:43:00,
2013-01-21 07:53:00,25.0,24.0,-100.00,SSW,211,1.0,5.0,97,0.00,,,0.00,0.000000,,2013-01-21 12:53:00,
2013-01-21 08:03:00,25.0,24.0,-100.00,SSW,211,1.0,5.0,97,0.00,,,0.00,0.000000,,2013-01-21 13:03:00,
2013-01-21 08:33:00,25.0,24.0,-100.00,East,98,1.0,5.0,96,0.00,,,0.00,4.000000,,2013-01-21 13:33:00,
2013-01-21 08:43:00,25.0,24.0,-100.00,East,98,1.0,5.0,96,0.00,,,0.00,4.000000,,2013-01-21 13:43:00,
2013-01-21 08:54:00,25.0,24.0,-100.00,East,98,1.0,5.0,96,0.00,,,0.00,4.000000,,2013-01-21 13:54:00,
2013-01-21 09:04:00,25.0,24.0,-100.00,East,98,1.0,5.0,96,0.00,,,0.00,4.000000,,2013-01-21 14:04:00,
2013-01-21 09:33:00,28.0,27.0,-100.00,SE,124,1.0,4.0,95,0.00,,,0.00,38.000000,,2013-01-21 14:33:00,
2013-01-21 09:43:00,28.0,27.0,-100.00,SE,124,1.0,4.0,95,0.00,,,0.00,38.000000,,2013-01-21 14:43:00,
2013-01-21 09:54:00,28.0,27.0,-100.00,SE,124,1.0,4.0,95,0.00,,,0.00,38.000000,,2013-01-21 14:54:00,
2013-01-21 10:03:00,28.0,27.0,-100.00,SE,124,1.0,4.0,95,0.00,,,0.00,38.000000,,2013-01-21 15:03:00,
2013-01-21 10:33:00,37.0,36.0,-100.00,WSW,240,0.0,2.0,95,0.00,,,0.00,306.000000,,2013-01-21 15:33:00,
2013-01-21 10:43:00,37.0,36.0,-100.00,WSW,240,0.0,2.0,95,0.00,,,0.00,306.000000,,2013-01-21 15:43:00,
2013-01-21 10:53:00,37.0,36.0,-100.00,WSW,240,0.0,2.0,95,0.00,,,0.00,306.000000,,2013-01-21 15:53:00,
2013-01-21 11:04:00,37.0,36.0,-100.00,WSW,240,0.0,2.0,95,0.00,,,0.00,306.000000,,2013-01-21 16:04:00,
2013-01-21 11:33:00,47.0,37.0,-100.00,SW,235,3.0,6.0,68,0.00,,,0.00,533.000000,,2013-01-21 16:33:00,
2013-01-21 11:44:00,47.0,37.0,-100.00,SW,235,3.0,6.0,68,0.00,,,0.00,533.000000,,2013-01-21 16:44:00,
2013-01-21 11:53:00,47.0,37.0,-100.00,SW,235,3.0,6.0,68,0.00,,,0.00,533.000000,,2013-01-21 16:53:00,
2013-01-21 12:03:00,47.0,37.0,-100.00,SW,235,3.0,6.0,68,0.00,,,0.00,533.000000,,2013-01-21 17:03:00,
2013-01-21 12:33:00,50.0,25.0,-100.00,NW,308,7.0,11.0,38,0.00,,,0.00,659.000000,,2013-01-21 17:33:00,
2013-01-21 12:43:00,50.0,25.0,-100.00,NW,308,7.0,11.0,38,0.00,,,0.00,659.000000,,2013-01-21 17:43:00,
2013-01-21 12:53:00,50.0,25.0,-100.00,NW,308,7.0,11.0,38,0.00,,,0.00,659.000000,,2013-01-21 17:53:00,
2013-01-21 13:03:00,50.0,25.0,-100.00,NW,308,7.0,11.0,38,0.00,,,0.00,659.000000,,2013-01-21 18:03:00,
2013-01-21 13:33:00,47.0,20.0,-100.00,ENE,63,6.0,16.0,34,0.00,,,0.00,717.000000,,2013-01-21 18:33:00,
2013-01-21 13:43:00,47.0,20.0,-100.00,ENE,63,6.0,16.0,34,0.00,,,0.00,717.000000,,2013-01-21 18:43:00,
2013-01-21 13:53:00,47.0,20.0,-100.00,ENE,63,6.0,16.0,34,0.00,,,0.00,717.000000,,2013-01-21 18:53:00,
2013-01-21 14:03:00,47.0,20.0,-100.00,ENE,63,6.0,16.0,34,0.00,,,0.00,717.000000,,2013-01-21 19:03:00,
2013-01-21 14:33:00,49.0,19.0,-100.00,NW,318,6.0,15.0,30,0.00,,,0.00,701.000000,,2013-01-21 19:33:00,
2013-01-21 14:43:00,49.0,19.0,-100.00,NW,318,6.0,15.0,30,0.00,,,0.00,701.000000,,2013-01-21 19:43:00,
2013-01-21 14:53:00,49.0,19.0,-100.00,NW,318,6.0,15.0,30,0.00,,,0.00,701.000000,,2013-01-21 19:53:00,
2013-01-21 15:03:00,49.0,19.0,-100.00,NW,318,6.0,15.0,30,0.00,,,0.00,701.000000,,2013-01-21 20:03:00,
2013-01-21 16:33:00,48.0,17.0,-100.00,NW,317,5.0,13.0,29,-99.99,,,0.00,466.000000,,2013-01-21 21:33:00,
2013-01-21 16:43:00,48.0,17.0,-100.00,NW,317,5.0,13.0,29,-99.99,,,0.00,466.000000,,2013-01-21 21:43:00,
2013-01-21 16:54:00,48.0,17.0,-100.00,NW,317,5.0,13.0,29,-99.99,,,0.00,466.000000,,2013-01-21 21:54:00,
2013-01-21 17:03:00,48.0,17.0,-100.00,NW,317,5.0,13.0,29,-99.99,,,0.00,466.000000,,2013-01-21 22:03:00,
2013-01-21 17:33:00,43.0,10.0,-100.00,NW,314,8.0,22.0,26,0.00,,,0.00,246.000000,,2013-01-21 22:33:00,
2013-01-21 17:43:00,43.0,10.0,-100.00,NW,314,8.0,22.0,26,0.00,,,0.00,246.000000,,2013-01-21 22:43:00,
2013-01-21 17:53:00,43.0,10.0,-100.00,NW,314,8.0,22.0,26,0.00,,,0.00,246.000000,,2013-01-21 22:53:00,
2013-01-21 18:03:00,43.0,10.0,-100.00,NW,314,8.0,22.0,26,0.00,,,0.00,246.000000,,2013-01-21 23:03:00,
2013-01-21 18:33:00,38.0,11.0,-100.00,NNW,338,2.0,15.0,32,0.00,,,0.00,49.000000,,2013-01-21 23:33:00,
2013-01-21 18:43:00,38.0,11.0,-100.00,NNW,338,2.0,15.0,32,0.00,,,0.00,49.000000,,2013-01-21 23:43:00,
2013-01-21 18:53:00,38.0,11.0,-100.00,NNW,338,2.0,15.0,32,0.00,,,0.00,49.000000,,2013-01-21 23:53:00,
2013-01-21 19:03:00,38.0,11.0,-100.00,NNW,338,2.0,15.0,32,0.00,,,0.00,49.000000,,2013-01-22 00:03:00,
2013-01-21 19:33:00,35.0,15.0,-100.00,WSW,243,2.0,7.0,43,0.00,,,0.00,0.000000,,2013-01-22 00:33:00,
2013-01-21 19:43:00,35.0,15.0,-100.00,WSW,243,2.0,7.0,43,0.00,,,0.00,0.000000,,2013-01-22 00:43:00,
2013-01-21 19:53:00,35.0,15.0,-100.00,WSW,243,2.0,7.0,43,0.00,,,0.00,0.000000,,2013-01-22 00:53:00,
2013-01-21 20:02:00,35.0,15.0,-100.00,WSW,243,2.0,7.0,43,0.00,,,0.00,0.000000,,2013-01-22 01:02:00,
2013-01-21 21:33:00,32.0,13.0,-100.00,NNW,337,1.0,9.0,45,-99.99,,,0.00,0.000000,,2013-01-22 02:33:00,
2013-01-21 21:43:00,32.0,13.0,-100.00,NNW,337,1.0,9.0,45,-99.99,,,0.00,0.000000,,2013-01-22 02:43:00,
2013-01-21 21:53:00,32.0,13.0,-100.00,NNW,337,1.0,9.0,45,-99.99,,,0.00,0.000000,,2013-01-22 02:53:00,
2013-01-21 22:03:00,32.0,13.0,-100.00,NNW,337,1.0,9.0,45,-99.99,,,0.00,0.000000,,2013-01-22 03:03:00,
2013-01-21 22:33:00,31.0,12.0,-100.00,NNW,342,3.0,9.0,44,0.00,,,0.00,0.000000,,2013-01-22 03:33:00,
2013-01-21 22:43:00,31.0,12.0,-100.00,NNW,342,3.0,9.0,44,0.00,,,0.00,0.000000,,2013-01-22 03:43:00,
2013-01-21 22:53:00,31.0,12.0,-100.00,NNW,342,3.0,9.0,44,0.00,,,0.00,0.000000,,2013-01-22 03:53:00,
2013-01-21 23:03:00,31.0,12.0,-100.00,NNW,342,3.0,9.0,44,0.00,,,0.00,0.000000,,2013-01-22 04:03:00,
2013-01-21 23:33:00,29.0,11.0,-100.00,NW,309,2.0,7.0,47,0.00,,,0.00,0.000000,,2013-01-22 04:33:00,
2013-01-21 23:43:00,29.0,11.0,-100.00,NW,309,2.0,7.0,47,0.00,,,0.00,0.000000,,2013-01-22 04:43:00,
2013-01-21 23:53:00,29.0,11.0,-100.00,NW,309,2.0,7.0,47,0.00,,,0.00,0.000000,,2013-01-22 04:53:00,